Regional Weather Roundup
Issued by NWS

Home | Current Version | Previous Version | Graphics & Text | Print | Product List | Glossary On
Versions: 1 2 3 4 5 6 7 8 9 10 11 12 13 14 15 16 17 18 19 20 21 22 23 24 25 26 27 28 29 30 31 32 33 34 35 36 37 38 39 40 41 42 43 44 45 46 47 48 49 50
000
ASUS45 KTFX 040310
RWRMT
MONTANA REGIONAL WEATHER ROUNDUP
NATIONAL WEATHER SERVICE GREAT FALLS MT
800 PM MST SAT DEC 03 2016

NOTE: "FAIR" INDICATES FEW OR NO CLOUDS BELOW 12000 FEET WITH NO
SIGNIFICANT WEATHER AND/OR OBSTRUCTIONS TO VISIBILITY.

MTZ001>007-043-040400-
WEST OF THE DIVIDE

CITY           SKY/WX    TMP DP  RH WIND       PRES   REMARKS
KALISPELL      CLOUDY    33  26  75 SW5       29.99F
MISSOULA       CLOUDY    34  29  82 N6        30.06F WCI  29
BUTTE          CLOUDY    30  16  56 W14G23    29.99F WCI  19
MULLAN PASS    SNOW      24  22  91 CALM      29.95F VSB 1/2
ANACONDA         N/A     30  16  55 S12       30.00S WCI  21
DEER LODGE       N/A     27  23  86 CALM      30.02R
EUREKA           N/A     37  21  52 SE3       29.96F
HAMILTON         N/A     37  21  52 S10       30.06F WCI  30
LIBBY            N/A     37  28  70 CALM      29.97F
PLAINS           N/A     40  27  60 S1        30.04F
RONAN            N/A     35  28  76 CALM      30.07F
$$

MTZ008-052>055-040400-
SOUTHWEST MONTANA

CITY           SKY/WX    TMP DP  RH WIND       PRES   REMARKS
BOZEMAN        CLOUDY    34  19  54 SW9       30.00F WCI  27
DILLON         CLOUDY    28  15  58 SW16      30.04S WCI  16
W YELLOWSTONE  CLOUDY    18  18 100 SW8G17    30.09R WCI   7
ENNIS          MOCLDY    27  16  63 S12       30.08F WCI  16
THREE FORKS      N/A     35  35 100 CALM      30.00F
TWIN BRIDGES     N/A     30  12  47 SE6       30.02F WCI  24
$$

MTZ009-010-012-014-046-048-049-054-040400-
EAST SLOPES AND CENTRAL MONTANA

CITY           SKY/WX    TMP DP  RH WIND       PRES   REMARKS
CUT BANK       CLOUDY    30  21  69 W18       29.85F WCI  18
GREAT FALLS    CLOUDY    30  18  60 SW13      29.91F WCI  20
MALMSTROM AFB  CLOUDY    29  21  71 SW9       29.91F WCI  20
HELENA         CLOUDY    37  21  52 W8        30.00S WCI  31
AUGUSTA        MOCLDY    33  17  52 W28G37    29.88S WCI  19
BOWMANS CRNR   MOCLDY    31  21  67 SW26      29.90R WCI  17
CHOTEAU          N/A     32  16  51 SW6       29.90F WCI  26
CONRAD           N/A     30  24  78 S8        29.89F WCI  22
FAIRFIELD        N/A     33  15  47 SW15      29.88S WCI  23
POWER            N/A     25  17  71 SW10      29.88F WCI  15
RAYNESFORD     MOCLDY    35  19  53 SW20G26   29.90S WCI  24
ULM            MOCLDY    33  21  61 W10       29.92F WCI  25
$$

MTZ011-013-016-021-045-047-050-051-040400-
NORTH CENTRAL MONTANA

CITY           SKY/WX    TMP DP  RH WIND       PRES   REMARKS
HAVRE          CLEAR     32  23  69 SW9       29.86S WCI  24
LEWISTOWN      PTCLDY    26  17  68 SW12      29.89S WCI  16
N BAR RANCH    CLOUDY    30  19  64 W9G16     29.89F WCI  22
CHINOOK          N/A     28  25  86 N3        29.86R
DENTON         MOCLDY    34  20  57 W17G29    29.87R WCI  24
GEYSER         MOCLDY    26  18  72 W3        29.89S
GRASS RANGE    MOCLDY    33  25  72 SW14      29.86R WCI  23
JUDITH GAP     MOCLDY    31  15  50 NW16G30   29.88S WCI  20
ROY            MOCLDY    34  19  53 MISG      29.87R
STANFORD       MOCLDY    32  17  54 W15       29.89S WCI  22
WINIFRED       MOCLDY    34  18  52 MISG      29.88R
$$

MTZ017>020-022>027-061-062-040400-
NORTHEAST MONTANA

CITY           SKY/WX    TMP DP  RH WIND       PRES   REMARKS
GLASGOW        CLEAR     30  26  85 W16       29.80S WCI  19
JORDAN           N/A     28  21  75 W3        29.84S
SIDNEY         CLOUDY    37  31  78 W13       29.77F WCI  29
WOLF POINT     CLEAR     33  29  85 W9        29.80R WCI  25
PLENTYWOOD       N/A     32  30  93 W6        29.73R WCI  26
POPLAR           N/A     36  30  80 W13       29.78S WCI  27
SCOBEY           N/A     32  25  76 W8        29.74R WCI  25
$$

MTZ028>42-056>058-040400-
SOUTHCENTRAL AND SOUTHEAST MONTANA

CITY           SKY/WX    TMP DP  RH WIND       PRES   REMARKS
BAKER          PTCLDY    32  25  75 W14       29.83F WCI  22
BILLINGS       PTCLDY    33  24  69 SW14      29.93F WCI  23
LIVINGSTON     CLOUDY    35  16  45 SW20G30   29.95F WCI  24
MILES CITY     MOCLDY    34  21  59 W12       29.86S WCI  25
BIG TIMBER     CLOUDY    34  19  55 W14       29.96F WCI  24
EKALAKA          N/A     33  23  67 SW14      29.84R WCI  23
FORSYTH          N/A     37  21  52 W9        29.88S WCI  31
HARLOWTON      MOCLDY    28  17  62 W16G24    29.91S WCI  17
LAUREL           N/A     34  20  57 W9        29.93F WCI  27
ROUNDUP          N/A     32  19  58 SW8       29.83S WCI  25
$$

REGIONAL REPORTS...DAKOTAS

CITY           SKY/WX    TMP DP  RH WIND       PRES   REMARKS
WILLISTON      CLOUDY    34  31  88 W13       29.74S WCI  25
MINOT          LGT SNOW  28  26  92 S8        29.73F FOG     WCI  20
DICKINSON      MOCLDY    32  28  85 W17       29.75S WCI  21
BEACH          MOCLDY    32  32 100 W13       29.81F WCI  22
CROSBY         MOCLDY    32  32 100 W9        29.73S WCI  24
TIOGA          CLOUDY    32  32 100 SW12      29.72F WCI  23
WATFORD CITY   CLOUDY    32  32 100 W9        29.75S WCI  24
BISMARCK       CLOUDY    26  25  96 S3        29.81F
GRAND FORKS    FLURRIES  31  28  89 S14       29.95F WCI  21
FARGO          CLOUDY    34  30  85 S16G25    29.96F WCI  24
BUFFALO SD       N/A     37  28  70 W23G33    29.79R WCI  26
RAPID CITY     PTCLDY    27  20  75 W7        29.91R WCI  19
$$

REGIONAL REPORTS...WYOMING/IDAHO/WASHINGTON

CITY           SKY/WX    TMP DP  RH WIND       PRES   REMARKS
GILLETTE       CLOUDY    34  19  54 W16       29.93F WCI  24
SHERIDAN       CLEAR     34  16  47 W15       29.93S WCI  24
BUFFALO WY     CLEAR     35   9  33 NW10      29.93F WCI  27
CODY           CLEAR     32  12  43 W13G23    29.99R WCI  22
YELLOWSTONE LA   N/A     16  14  92 W6        30.04F WCI   7
IDAHO FALLS    CLOUDY    25  21  85 CALM      30.16F
SALMON         MOCLDY    30  19  64 CALM      30.11R
BOISE          MOCLDY    35  27  72 CALM      30.23R
SPOKANE        CLOUDY    39  33  79 S16       30.04F WCI  30
$$

REGIONAL REPORTS...ALBERTA

CITY           SKY/WX    TMP DP  RH WIND       PRES   REMARKS
EDMONTON       CLEAR     28  18  64 W9        29.68R WCI  20
CALGARY        MOCLDY    32  14  47 W10       29.71F WCI  24
LETHBRIDGE     MOCLDY    36  16  44 W25G32    29.79F WCI  23
MEDICINE HAT   CLEAR     25  19  80 SW8       29.79S WCI  16
WATERTON GATE    N/A     32  18  55 SW20G25     N/A  WCI  20
CARDSTON         N/A     34  16  47 W15G24      N/A  WCI  24
MILK RIVER       N/A     34  19  55 W18         N/A  WCI  23
ONEFOUR          N/A     28  19  69 NW12        N/A  WCI  18
$$

REGIONAL REPORTS...SASKATCHEWAN

CITY           SKY/WX    TMP DP  RH WIND       PRES   REMARKS
SWIFT CURRENT  MOCLDY    28  27  93 W8        29.74R WCI  20
REGINA         CLOUDY    23  23 100 NW15      29.72R WCI  10
SASKATOON      CLOUDY    25  23  93 W9        29.74R WCI  15
CYPRESS HILLS    N/A     25  19  80 W6          N/A  WCI  18
VAL MARIE        N/A     28  25  86 W13         N/A  WCI  18
ROCKGLEN         N/A     30  28  93 NW14G24     N/A  WCI  20
ASSINIBOIA       N/A     28  19  69 SW10        N/A  WCI  19
$$



USA.gov is the U.S. government's official web portal to all federal, state and local government web resources and services.